Temperature
15 16 16 15 15 14 13 12 12 12 13 13 13 13 14 14 14 14 14 14 14 14 13 13 13 12 12 12 12 12 12 13 12 12 13 13 13 13 13 14 14 14 14 14
16 16 16 15 15 15 14 14 13 13 13 14 14 14 14 14 14 14 14 14 14 14 13 13 13 13 12 12 12 12 12 12 12 12 12 12 12 12 13 13 13 13 13 14
14 15 16 14 15 15 15 15 14 13 14 14 14 15 15 14 14 14 14 14 14 14 14 13 13 13 12 12 12 12 12 12 12 12 12 12 12 12 12 12 12 12 13 13
13 15 15 15 16 16 15 15 15 15 15 15 15 15 15 15 14 14 14 14 14 14 14 13 13 13 12 12 12 12 12 12 12 12 12 11 12 12 11 11 12 12 12 12
12 14 15 15 16 16 15 15 15 15 15 16 15 15 15 15 15 14 14 14 14 14 14 14 13 13 13 12 12 12 12 12 11 11 11 11 11 11 11 11 11 11 11 12
13 15 15 15 16 17 16 15 16 16 15 15 15 12 13 15 15 14 14 14 14 14 14 14 13 13 13 13 12 12 12 12 11 11 11 11 11 10 10 11 11 11 11 11
14 14 14 16 16 16 14 14 16 16 16 16 15 14 15 15 15 15 14 14 14 14 14 14 14 14 13 13 12 12 12 12 11 11 11 11 11 10 10 10 10 10 11 11
12 14 15 16 15 14 14 16 16 16 16 16 16 15 15 15 15 15 15 15 15 15 14 14 14 14 13 13 13 12 12 12 11 11 11 11 11 11 10 10 11 10 11 11
13 14 16 17 17 18 17 17 17 16 16 16 16 15 15 15 15 15 15 15 15 15 15 14 14 14 14 13 13 13 12 12 11 11 11 11 11 11 10 10 11 10 10 10
14 14 16 17 18 18 17 17 17 16 16 16 15 15 15 15 15 15 15 15 15 15 15 15 14 14 14 14 13 13 12 12 11 11 11 11 11 11 10 10 10 10 10 10
14 15 16 17 17 17 17 17 16 16 16 15 15 15 15 15 15 15 15 15 15 15 15 15 14 14 14 14 13 13 12 12 11 11 11 11 10 10 10 10 10 10 10 10
14 16 16 17 17 17 17 16 16 16 15 15 15 15 15 15 15 15 15 15 15 15 15 15 14 14 14 14 13 13 12 12 11 11 11 11 10 10 10 10 10 10 10 9
20 19 19 19 18 17 17 16 16 16 15 15 15 15 15 15 15 14 14 15 15 15 15 15 14 14 14 14 13 13 13 12 12 11 11 11 10 10 10 10 10 10 10 9
20 19 18 18 18 17 17 16 16 16 15 15 15 15 15 14 14 14 14 14 14 14 14 14 14 14 14 14 13 13 13 12 12 11 11 11 11 10 10 10 10 10 10 9
19 19 19 18 17 17 16 16 16 15 15 15 15 15 14 14 14 14 14 14 14 14 14 14 14 14 14 14 14 13 13 12 12 12 11 11 11 11 11 10 10 10 10 10
19 18 18 18 17 16 16 16 15 15 15 15 15 15 14 14 14 14 14 14 14 14 14 14 14 14 14 14 14 13 13 13 12 12 12 11 11 11 11 11 10 10 10 10
18 18 17 17 17 16 16 16 16 15 15 15 15 15 14 14 14 14 14 13 13 14 14 14 14 14 14 14 14 13 13 13 12 12 12 12 11 11 11 11 11 10 10 10
19 19 18 18 17 16 16 16 16 15 15 15 15 15 14 14 14 14 13 13 13 13 13 13 13 14 14 14 14 13 13 13 13 12 12 12 11 11 11 11 11 11 10 10
19 18 18 17 17 17 16 16 16 15 15 15 15 15 14 14 14 13 13 13 13 13 13 13 13 14 14 14 14 14 13 13 13 13 12 12 12 11 11 11 11 11 11 10
18 18 18 17 17 17 16 16 16 15 15 15 15 15 14 14 14 13 13 13 13 13 13 13 13 14 14 13 13 13 13 13 13 13 13 12 12 12 12 11 11 11 11 11
18 17 17 17 17 17 16 16 16 16 15 15 15 15 14 14 13 13 13 13 13 13 13 13 13 13 13 13 13 13 13 13 13 13 13 13 12 12 12 12 11 11 11 11
17 17 17 17 17 16 16 16 16 16 15 15 15 14 14 14 13 13 13 13 13 13 13 13 13 13 13 13 13 13 13 13 13 13 13 13 12 12 12 12 12 11 11 11
16 16 16 16 16 16 16 16 16 16 15 15 15 14 14 14 14 13 13 13 13 13 13 13 13 13 13 13 13 13 13 13 13 13 13 13 13 12 12 12 12 12 11 11
15 15 15 16 16 16 16 16 16 15 15 15 15 14 14 14 14 14 13 13 13 13 13 13 13 13 13 13 13 13 13 13 13 13 13 13 13 12 12 12 12 12 11 11
14 14 15 15 15 15 15 15 15 15 15 15 14 14 14 14 14 14 13 13 13 13 13 13 13 13 13 13 13 13 13 13 13 13 13 13 13 12 12 12 12 12 12 11
13 13 13 14 14 14 14 14 15 15 14 14 14 14 14 14 14 13 13 13 13 13 13 13 13 13 13 13 13 13 13 13 12 12 12 12 12 12 12 12 12 12 12 12
12 12 12 13 13 13 13 14 14 14 14 14 14 14 14 14 14 13 13 13 13 13 13 13 13 13 13 13 13 13 13 13 13 12 12 12 12 12 12 12 12 12 12 12
Wind_Speed
4 4 4 3 4 5 5 5 5 4 4 5 5 4 5 5 5 5 7 8 8 7 7 7 7 7 7 7 8 8 9 10 10 9 9 9 10 9 9 9 8 7 7 6
2 3 3 2 3 4 3 4 4 4 3 5 3 1 3 4 5 5 6 7 8 8 8 7 6 5 6 7 7 7 8 9 8 9 9 10 9 9 9 9 8 8 8 8
2 3 1 1 4 4 3 4 6 4 5 3 1 1 1 2 3 4 6 6 7 7 6 4 4 4 5 5 5 7 7 8 8 8 8 8 8 9 8 7 7 8 7 7
3 3 3 6 4 5 5 4 6 5 4 4 4 3 1 1 1 3 5 6 7 6 5 3 3 3 4 5 6 6 6 7 7 7 7 7 8 8 7 6 6 6 7 7
4 2 2 4 3 5 5 3 5 6 4 4 5 3 4 3 1 1 3 4 4 4 2 2 2 2 4 5 5 6 6 6 6 6 7 8 8 7 6 6 7 6 6 7
3 3 5 7 6 5 5 2 5 7 6 6 5 2 4 5 2 2 4 4 4 4 3 3 2 1 3 3 4 4 4 4 4 5 6 7 7 7 6 6 6 7 8 8
3 4 6 5 6 7 5 7 6 8 8 7 6 6 5 3 1 1 3 4 4 5 3 3 2 1 2 2 2 1 3 4 5 5 5 6 7 6 6 7 7 7 8 8
4 3 7 6 9 8 9 4 8 8 8 7 5 3 1 1 0 2 3 5 5 4 5 4 2 1 0 2 1 2 4 5 5 6 6 6 7 7 7 7 7 7 7 8
7 7 6 9 9 8 7 8 7 8 7 7 5 3 3 1 0 2 3 4 4 4 5 5 3 1 2 3 0 4 5 4 4 5 6 6 7 7 6 7 6 6 7 7
3 5 5 6 5 7 8 8 8 8 8 7 6 4 3 1 1 2 3 4 4 4 5 5 5 3 3 2 3 6 6 4 3 4 5 6 6 5 6 6 6 6 6 6
3 4 3 5 6 9 8 9 9 8 7 8 7 5 4 2 1 2 2 3 3 4 5 6 5 3 2 1 4 5 5 4 3 3 3 4 4 4 4 4 4 4 3 4
8 9 9 10 10 10 11 10 10 9 8 7 7 6 4 2 1 1 1 2 3 5 5 5 4 2 2 1 4 5 4 4 3 3 2 2 3 3 5 4 7 7 6 4
7 7 8 6 10 11 12 12 10 10 9 7 6 5 5 2 1 1 1 2 3 5 5 4 3 2 2 0 3 4 4 4 3 3 3 3 2 2 1 3 5 7 8 8
7 8 5 6 9 10 10 11 10 9 8 8 6 5 4 3 1 1 2 3 4 4 4 2 1 2 2 1 2 3 4 4 4 3 3 3 3 2 2 1 1 2 5 7
7 7 7 7 9 9 9 9 8 8 7 7 6 6 5 4 3 3 3 3 3 4 4 2 1 2 3 1 2 3 4 3 3 3 3 2 2 2 2 2 2 0 1 3
7 6 8 9 10 10 9 9 9 9 8 7 7 7 7 6 4 3 3 2 1 3 3 2 1 3 3 1 2 2 3 5 5 3 2 2 2 2 3 3 2 2 1 0
10 9 9 9 10 10 10 10 10 9 8 9 9 8 7 4 2 2 3 3 2 2 1 1 2 4 3 1 2 2 3 3 4 3 3 3 3 4 4 4 4 3 2 2
11 12 11 12 11 10 10 10 10 9 9 9 9 8 7 6 5 5 5 2 0 1 1 2 3 4 3 2 1 2 3 3 3 3 3 3 4 4 4 4 5 5 3 2
8 9 10 11 11 11 10 10 9 9 9 9 9 9 7 7 6 6 4 3 2 3 4 4 5 3 2 2 0 1 2 3 3 3 4 5 4 4 4 5 5 5 5 4
7 8 10 10 10 9 10 9 9 9 9 9 9 8 7 6 6 5 4 4 5 5 5 4 3 2 2 2 2 1 2 3 4 4 4 4 5 5 5 5 6 6 6 5
6 7 9 9 9 9 10 10 10 10 9 10 10 10 9 7 6 5 4 4 6 6 5 4 2 2 2 3 3 2 3 3 4 4 5 5 5 5 5 5 6 6 6 6
3 5 7 8 8 8 8 9 10 10 10 9 9 9 8 7 6 5 5 6 6 7 5 3 3 5 5 4 3 3 4 4 4 4 5 5 6 6 6 6 6 6 6 6
1 1 3 5 7 7 7 8 9 10 10 10 10 10 9 8 6 6 6 6 5 7 6 5 6 8 8 4 3 4 4 4 4 5 5 5 6 6 6 6 6 6 6 7
5 3 1 2 4 5 6 7 8 8 9 9 10 10 9 7 6 6 6 7 9 9 6 8 10 10 7 3 4 4 4 5 5 5 5 5 5 5 6 6 6 6 7 8
6 5 4 2 1 3 5 6 6 6 7 7 8 9 8 7 7 7 7 8 10 9 6 8 10 10 5 4 4 5 5 5 5 5 5 5 5 6 6 6 6 6 7 7
5 5 4 3 3 3 3 3 4 5 5 6 6 7 7 6 7 6 6 8 10 9 7 6 6 6 5 5 5 6 5 5 5 4 5 5 6 6 6 6 8 7 7 7
6 5 4 5 4 3 2 3 4 5 6 7 7 7 7 7 6 7 8 7 7 7 7 6 6 6 6 5 6 6 5 5 5 5 5 5 5 6 6 8 6 6 6 6
Wind_Direction
144 156 128 110 94 82 94 141 147 183 204 258 275 292 311 324 339 353 356 357 353 355 356 0 11 16 20 19 18 23 31 33 30 26 28 29 30 31 34 39 43 42 51 49
135 172 129 100 126 119 113 125 137 157 228 242 244 304 359 360 4 1 353 354 353 357 6 9 16 20 25 24 20 28 36 33 28 30 33 31 27 29 34 35 36 46 49 48
190 202 101 278 216 182 165 167 163 186 220 215 153 106 51 17 17 359 350 347 348 350 357 7 17 33 39 27 26 34 36 30 26 29 31 26 27 31 30 28 35 40 38 39
127 125 242 254 230 167 163 192 187 186 196 186 170 170 189 181 62 356 346 345 344 344 352 2 22 37 45 38 36 38 35 29 26 28 27 21 24 25 22 22 30 35 35 30
120 168 268 290 211 169 165 216 194 171 172 156 136 61 348 307 277 306 328 330 328 336 345 13 31 50 59 40 34 39 35 30 28 31 29 25 23 16 15 26 34 37 36 33
124 160 235 241 204 154 116 238 217 159 152 147 125 90 279 284 301 334 342 335 338 349 7 10 3 72 68 40 35 36 35 35 35 38 37 30 22 19 21 32 38 40 40 33
170 218 257 243 149 118 159 228 191 157 152 146 160 196 234 269 314 334 335 334 344 357 354 310 296 105 67 16 2 22 59 51 43 38 42 36 31 28 29 36 41 41 39 31
166 203 256 190 143 176 211 174 152 150 152 150 169 189 166 117 93 334 334 332 342 350 337 314 293 146 126 298 290 105 88 69 52 42 43 43 41 34 30 33 39 35 34 29
187 213 236 179 187 197 160 151 154 153 156 148 147 141 126 135 247 312 323 326 332 341 338 328 311 249 244 281 149 121 110 95 72 58 47 42 46 40 33 30 37 35 35 31
210 258 208 190 175 159 158 155 157 154 151 145 147 145 136 156 277 315 321 324 336 349 348 333 314 292 264 287 119 125 127 127 105 83 62 48 44 42 45 36 35 35 34 29
223 239 185 224 191 170 158 146 147 149 151 154 152 154 157 178 266 302 316 320 336 344 332 322 316 310 309 118 119 126 135 142 129 113 99 74 58 43 42 30 26 39 30 24
214 203 181 209 200 170 155 160 161 158 161 165 164 168 161 184 247 268 295 322 339 340 333 324 328 318 333 94 131 138 142 152 154 144 132 116 100 54 27 32 33 41 42 41
194 180 183 195 180 171 164 167 168 168 170 174 175 171 162 182 232 232 300 324 327 326 325 328 341 344 320 360 130 143 159 168 166 163 164 167 161 137 68 8 19 26 28 36
152 131 145 163 174 173 166 167 165 166 173 173 173 171 164 165 181 211 278 288 306 329 340 346 10 352 317 323 134 143 155 167 168 176 178 183 190 187 172 148 32 355 3 23
169 162 169 167 158 162 160 155 158 170 177 179 177 174 173 178 206 246 267 287 325 345 344 351 10 330 321 354 140 153 155 166 173 181 187 188 181 160 154 152 143 110 358 6
178 151 146 150 162 166 163 167 173 185 187 187 185 188 189 191 210 249 269 282 315 311 308 310 304 304 318 324 157 169 190 193 178 175 182 177 161 151 152 155 156 159 159 307
159 169 172 175 178 178 179 180 183 189 189 189 192 190 184 179 199 254 273 280 273 271 258 210 283 304 315 302 191 198 209 214 196 176 189 188 180 178 174 169 173 178 197 208
188 187 181 180 181 183 188 188 188 188 190 193 184 177 178 185 209 234 249 263 332 15 280 269 294 314 325 340 178 187 199 212 208 205 203 198 194 190 181 181 187 186 191 185
189 185 185 185 183 182 186 190 192 193 189 178 174 181 190 200 211 226 227 213 220 252 268 280 308 337 329 329 335 188 206 217 224 222 211 205 199 197 192 193 195 195 189 184
190 188 186 189 188 183 189 191 187 185 183 175 174 181 194 212 217 219 214 220 227 227 242 266 286 315 306 319 344 240 227 221 221 220 211 205 208 213 209 204 198 194 192 193
191 191 189 189 193 194 192 185 180 185 186 178 178 189 200 213 215 203 196 232 253 237 239 256 233 248 264 294 315 287 260 239 225 216 213 213 217 219 218 212 203 197 196 197
188 191 193 189 187 194 195 185 182 183 181 185 190 191 193 206 213 212 218 221 237 227 221 238 238 247 259 281 285 280 269 255 237 224 219 216 215 218 219 213 208 204 199 196
36 181 195 194 192 193 188 185 185 182 185 190 193 194 198 204 199 198 236 239 229 222 213 230 242 256 270 270 267 273 270 260 246 234 226 220 217 215 216 216 210 203 197 196
26 17 320 214 176 172 190 203 198 195 197 198 200 198 194 202 220 223 222 231 217 218 218 235 249 261 271 260 262 267 267 264 255 245 236 228 223 218 216 213 210 205 200 196
18 14 17 39 154 209 216 213 206 208 206 212 217 212 203 197 204 219 216 222 225 223 228 242 252 261 260 254 259 263 265 262 258 248 235 228 224 220 217 214 209 204 201 200
0 353 342 309 263 248 233 213 213 217 210 218 228 225 218 214 216 218 217 220 224 219 219 233 244 252 246 247 253 256 259 271 278 259 243 236 229 223 220 217 214 207 204 204
341 342 342 339 331 310 268 233 227 228 218 215 226 228 221 217 215 216 218 219 219 220 223 228 232 235 239 244 248 252 254 257 259 255 250 243 236 229 225 221 216 211 205 201
Height
1576 1574 1575 1576 1577 1577 1580 1585 1591 1589 1586 1582 1578 1576 1573 1571 1568 1566 1563 1559 1556 1553 1549 1546 1542 1539 1535 1532 1529 1526 1523 1520 1518 1516 1515 1513 1512 1511 1510 1510 1510 1510 1510 1510
1578 1575 1575 1578 1577 1577 1579 1580 1583 1584 1584 1578 1576 1575 1573 1571 1569 1567 1564 1561 1558 1555 1552 1549 1546 1542 1539 1536 1533 1530 1526 1523 1521 1519 1518 1516 1514 1513 1512 1512 1511 1511 1510 1510
1586 1578 1579 1585 1578 1577 1577 1577 1579 1583 1581 1576 1576 1575 1574 1572 1570 1567 1565 1563 1560 1557 1554 1551 1548 1545 1542 1539 1536 1533 1529 1527 1524 1522 1520 1518 1517 1516 1514 1513 1512 1512 1511 1511
1585 1585 1590 1581 1570 1571 1574 1574 1574 1574 1574 1574 1575 1575 1574 1572 1570 1568 1566 1564 1561 1559 1556 1554 1551 1548 1545 1542 1539 1536 1533 1530 1527 1525 1523 1521 1519 1518 1516 1515 1514 1513 1512 1511
1588 1588 1583 1577 1570 1570 1574 1575 1571 1572 1573 1574 1575 1575 1574 1573 1571 1569 1567 1565 1563 1560 1558 1555 1553 1550 1548 1545 1542 1539 1536 1533 1531 1528 1526 1524 1522 1520 1519 1517 1516 1515 1514 1512
1584 1584 1585 1573 1565 1567 1572 1577 1570 1570 1571 1573 1574 1578 1576 1573 1571 1569 1567 1565 1563 1561 1559 1557 1554 1552 1550 1547 1544 1542 1539 1537 1534 1531 1529 1526 1524 1523 1521 1520 1518 1517 1515 1514
1581 1581 1575 1563 1563 1567 1581 1575 1567 1568 1570 1571 1572 1574 1574 1572 1571 1570 1568 1566 1564 1562 1560 1558 1556 1554 1552 1549 1547 1545 1542 1540 1537 1534 1531 1529 1527 1525 1524 1522 1521 1519 1517 1516
1581 1581 1575 1559 1562 1567 1565 1562 1564 1567 1569 1570 1571 1572 1572 1572 1571 1570 1568 1566 1565 1563 1561 1559 1557 1555 1553 1551 1549 1547 1545 1542 1540 1537 1534 1532 1530 1528 1527 1525 1523 1522 1520 1518
1566 1565 1554 1553 1555 1557 1558 1560 1563 1565 1568 1569 1571 1572 1572 1572 1571 1570 1568 1567 1565 1563 1561 1559 1558 1556 1554 1552 1550 1549 1547 1545 1542 1540 1538 1535 1533 1531 1529 1528 1526 1524 1523 1521
1556 1553 1550 1552 1554 1555 1557 1559 1562 1564 1567 1569 1570 1571 1571 1571 1570 1569 1568 1567 1565 1563 1562 1560 1558 1557 1555 1553 1552 1550 1548 1547 1545 1543 1541 1539 1537 1535 1533 1531 1529 1528 1526 1524
1553 1550 1551 1551 1552 1554 1556 1559 1561 1564 1566 1567 1569 1570 1570 1570 1570 1569 1568 1566 1565 1563 1562 1560 1559 1557 1556 1554 1553 1551 1550 1548 1547 1545 1543 1542 1540 1538 1536 1534 1533 1531 1529 1527
1548 1543 1545 1546 1549 1552 1554 1557 1559 1562 1564 1566 1567 1568 1569 1569 1569 1568 1567 1566 1564 1563 1561 1560 1559 1557 1556 1555 1554 1552 1551 1549 1548 1547 1545 1544 1543 1541 1540 1538 1536 1534 1533 1530
1537 1538 1541 1543 1546 1549 1552 1555 1558 1560 1562 1564 1566 1567 1567 1568 1567 1567 1566 1565 1564 1562 1561 1560 1558 1557 1556 1555 1554 1553 1551 1550 1549 1548 1547 1546 1545 1544 1542 1541 1539 1537 1535 1534
1535 1537 1539 1541 1543 1547 1550 1553 1556 1558 1560 1562 1564 1565 1566 1566 1566 1565 1565 1564 1563 1561 1560 1559 1558 1557 1556 1555 1554 1553 1552 1551 1550 1549 1548 1547 1546 1545 1544 1543 1542 1540 1538 1536
1534 1536 1537 1539 1541 1545 1548 1551 1554 1556 1558 1560 1561 1563 1563 1564 1564 1564 1563 1562 1561 1560 1559 1558 1557 1556 1555 1554 1553 1552 1552 1551 1550 1549 1549 1548 1547 1547 1546 1545 1543 1542 1540 1538
1533 1534 1535 1537 1539 1542 1545 1548 1550 1553 1555 1557 1559 1560 1561 1561 1561 1561 1561 1560 1559 1558 1558 1557 1556 1555 1554 1553 1553 1552 1551 1551 1550 1549 1549 1548 1548 1547 1546 1546 1544 1543 1542 1540
1529 1531 1532 1534 1537 1539 1542 1545 1547 1550 1552 1554 1556 1557 1558 1559 1559 1559 1559 1558 1557 1557 1556 1555 1554 1554 1553 1552 1551 1551 1551 1550 1550 1549 1549 1548 1548 1547 1547 1546 1545 1544 1543 1541
1526 1527 1529 1531 1534 1537 1540 1542 1545 1547 1549 1551 1553 1554 1555 1556 1556 1556 1556 1556 1555 1555 1554 1553 1552 1552 1551 1550 1550 1549 1549 1549 1549 1548 1548 1548 1547 1547 1546 1546 1545 1544 1543 1542
1523 1525 1527 1529 1531 1534 1537 1539 1542 1544 1546 1548 1550 1551 1552 1552 1553 1553 1553 1553 1552 1552 1552 1551 1550 1549 1549 1548 1548 1547 1547 1547 1547 1547 1547 1546 1546 1546 1545 1545 1545 1544 1543 1542
1520 1522 1524 1526 1529 1531 1534 1536 1539 1541 1543 1545 1546 1547 1548 1549 1549 1550 1550 1549 1549 1549 1549 1548 1547 1547 1546 1546 1545 1545 1545 1544 1544 1545 1545 1545 1544 1544 1544 1544 1543 1543 1542 1541
1517 1519 1521 1523 1526 1528 1530 1533 1535 1537 1539 1541 1542 1543 1544 1545 1546 1546 1546 1546 1546 1546 1546 1545 1544 1544 1543 1543 1543 1542 1542 1542 1542 1542 1542 1542 1542 1542 1542 1542 1541 1541 1541 1540
1515 1516 1518 1520 1522 1524 1527 1529 1531 1533 1535 1536 1538 1539 1540 1541 1542 1542 1542 1543 1543 1543 1542 1542 1541 1541 1540 1540 1539 1539 1538 1538 1538 1539 1539 1539 1539 1539 1539 1539 1539 1539 1538 1538
1512 1514 1516 1517 1519 1521 1523 1525 1527 1529 1531 1532 1533 1535 1535 1536 1537 1538 1538 1539 1539 1539 1539 1538 1538 1537 1537 1536 1535 1535 1535 1535 1535 1535 1535 1536 1536 1536 1536 1536 1536 1536 1536 1535
1511 1512 1513 1515 1516 1518 1519 1521 1523 1525 1527 1528 1529 1530 1531 1532 1533 1533 1534 1535 1535 1535 1535 1535 1534 1534 1533 1532 1532 1531 1531 1531 1531 1531 1532 1532 1532 1532 1533 1533 1533 1533 1533 1532
1510 1511 1511 1512 1513 1514 1516 1518 1519 1521 1522 1523 1524 1526 1527 1527 1528 1529 1530 1530 1530 1530 1530 1530 1530 1530 1529 1529 1528 1528 1528 1528 1528 1528 1528 1528 1528 1528 1528 1529 1529 1529 1529 1529
1509 1509 1510 1510 1511 1512 1513 1514 1515 1516 1517 1518 1519 1521 1522 1523 1523 1524 1524 1525 1525 1526 1526 1526 1526 1526 1525 1525 1524 1524 1524 1524 1524 1523 1524 1524 1524 1524 1524 1524 1524 1525 1525 1525
1508 1508 1508 1508 1509 1509 1509 1510 1510 1511 1512 1513 1514 1515 1516 1517 1518 1518 1519 1520 1520 1521 1521 1521 1521 1521 1521 1520 1520 1520 1519 1519 1519 1519 1519 1519 1519 1519 1519 1519 1520 1520 1520 1521